This demonstration page uses our WeatherBlox Daily Observations layout. Learn more.

Left ArrowRight Arrow

Hourly Observations for January 24, 2019

Temp ( °F °C ) Dew Point ( °F °C ) Humidity (%) Winds ( mph kmh ) Pressure ( in mb ) Visibility ( mi km ) Precip ( " mm )
12:53 am 00:53 Cloudy with Light Rain 54 12.2 54 12.2 100 100 ESE 3 6 29.69 1005 10 16 0.03 0.76
1:08 am 01:08 Cloudy 54 12.2 54 12.2 100 100 ESE 5 7 29.68 1005 10 16 0.00 0.03
1:53 am 01:53 Cloudy with Light Rain 54 12.2 54 12.2 100 100 WSW 6 9 29.70 1006 9 14 0.01 0.25
2:53 am 02:53 Cloudy with Light Rain 53 11.7 53 11.7 100 100 SW 6 9 29.71 1006 10 16 0.03 0.76
3:02 am 03:02 Cloudy with Light Rain 53 11.7 53 11.7 100 100 SW 5 7 29.71 1006 10 16 0.00 0.03
3:15 am 03:15 Cloudy with Light Rain 53 11.7 53 11.7 100 100 VRB 3 6 29.71 1006 10 16 0.00 0.03
3:53 am 03:53 Cloudy 53 11.7 53 11.7 100 100 S 5 7 29.68 1005 10 16 0.01 0.25
4:34 am 04:34 Cloudy with Rain 49 9.4 48 8.9 97 97 WNW 22 35 29.71 1006 5 8 0.01 0.25
4:41 am 04:41 Cloudy with Light Rain 48 8.9 48 8.9 100 100 WNW 14 22 29.71 1006 4 6 0.01 0.25
4:50 am 04:50 Cloudy with Light Rain 48 9 46 8 94 94 WNW 14 22 29.74 1007 5 8 0.01 0.25
4:53 am 04:53 Cloudy with Light Rain 47 8.3 47 8.3 100 100 WNW 14 22 29.73 1007 5 8 0.01 0.25
5:23 am 05:23 Cloudy 46 7.8 44 6.7 93 93 WNW 15 24 29.77 1008 10 16 0.00 0.03
5:53 am 05:53 Cloudy 45 7.2 43 6.1 93 93 WNW 12 19 29.75 1007 10 16 0.00 0.03
6:05 am 06:05 Cloudy 45 7.2 43 6.1 93 93 W 6 9 29.80 1009 10 16 0.00 0.00
6:53 am 06:53 Cloudy 43 6.1 40 4.4 89 89 W 10 17 29.80 1009 10 16 0.00 0.00
7:53 am 07:53 Cloudy 41 5 38 3.3 89 89 VRB 7 11 29.83 1010 10 16 0.00 0.00
8:53 am 08:53 Cloudy 39 3.9 36 2.2 89 89 WNW 9 15 29.86 1011 10 16 0.00 0.00
9:53 am 09:53 Cloudy 39 3.9 34 1.1 82 82 WNW 13 20 29.89 1012 10 16 0.00 0.00
10:53 am 10:53 Cloudy 38 3.3 33 0.6 83 83 WNW 16 26 29.93 1013 10 16 0.00 0.03
11:53 am 11:53 Cloudy 37 2.8 32 0 82 82 WNW 15 24 29.95 1014 10 16 0.00 0.03
12:53 pm 12:53 Cloudy 37 2.8 32 0 82 82 NW 10 17 29.96 1014 10 16 0.00 0.00
1:53 pm 13:53 Mostly Cloudy 39 3.9 31 -0.6 73 73 NW 13 20 29.96 1015 10 16 0.00 0.00
2:35 pm 14:35 Partly Cloudy 39 3.9 30 -1.1 70 70 NW 14 22 30.00 1016 10 16 0.00 0.00
2:53 pm 14:53 Mostly Sunny 40 4.4 30 -1.1 68 68 NW 12 19 29.96 1015 10 16 0.00 0.00
3:53 pm 15:53 Sunny 42 5.6 29 -1.7 60 60 WNW 10 17 29.98 1015 10 16 0.00 0.00
4:53 pm 16:53 Sunny 42 5.6 28 -2.2 58 58 WNW 9 15 29.99 1016 10 16 0.00 0.00
5:53 pm 17:53 Sunny 40 4.4 26 -3.3 58 58 NW 8 13 30.01 1016 10 16 0.00 0.00
6:53 pm 18:53 Clear 39 3.9 29 -1.7 67 67 W 7 11 30.06 1018 10 16 0.00 0.00
7:53 pm 19:53 Clear 37 2.8 28 -2.2 70 70 W 9 15 30.09 1019 10 16 0.00 0.00
8:53 pm 20:53 Clear 36 2.2 28 -2.2 73 73 NW 7 11 30.09 1019 10 16 0.00 0.00
9:53 pm 21:53 Clear 35 1.7 28 -2.2 76 76 NW 7 11 30.09 1019 10 16 0.00 0.00
10:53 pm 22:53 Clear 34 1.1 28 -2.2 79 79 NW 7 11 30.10 1019 10 16 0.00 0.00
11:53 pm 23:53 Clear 34 1.1 27 -2.8 76 76 WNW 8 13 30.12 1020 10 16 0.00 0.00

Powered by AerisWeather